This demonstration page uses our WeatherBlox Daily Observations layout. Learn more.

Left ArrowRight Arrow

Hourly Observations for November 12, 2019

Temp ( °F °C ) Dew Point ( °F °C ) Humidity (%) Winds ( mph kmh ) Pressure ( in mb ) Visibility ( mi km ) Precip ( " mm )
12:53 am 00:53 Cloudy with Light Rain 55 12.8 53 11.7 93 93 Calm 29.98 1015 4 6 0.04 1.02
1:53 am 01:53 Cloudy with Light Rain 56 13.3 54 12.2 93 93 SSE 6 9 29.93 1014 9 14 0.01 0.25
2:53 am 02:53 Cloudy with Mist and Fog 55 12.8 53 11.7 93 93 NE 3 6 29.90 1012 5 8 0.00 0.00
3:53 am 03:53 Cloudy with Mist and Fog 55 12.8 54 12.2 96 96 Calm 29.86 1011 4 6 0.00 0.00
4:11 am 04:11 Cloudy with Mist and Fog 55 12.8 54 12.2 96 96 NW 9 15 29.90 1013 4 6 0.00 0.00
4:15 am 04:15 Cloudy 56 13.3 54 12.2 93 93 W 7 11 29.90 1013 8 13 0.00 0.00
4:33 am 04:33 Cloudy with Heavy Rain 56 13.3 53 11.7 90 90 NW 15 24 29.93 1014 3 4 0.07 1.78
4:42 am 04:42 Cloudy with Rain 52 11.1 49 9.4 89 89 NNW 21 33 29.95 1014 4 6 0.10 2.54
4:53 am 04:53 Cloudy with Rain 48 8.9 45 7.2 89 89 NNW 18 30 29.94 1014 6 10 0.12 3.05
5:08 am 05:08 Cloudy with Light Rain 46 7.8 43 6.1 89 89 NNW 9 15 29.97 1015 10 16 0.00 0.00
5:35 am 05:35 Cloudy with Rain 46 7.8 43 6.1 89 89 NW 12 19 30.01 1016 10 16 0.02 0.51
5:45 am 05:45 Cloudy with Rain 44 6.7 41 5 89 89 NW 12 19 30.01 1016 5 8 0.05 1.27
5:53 am 05:53 Cloudy with Rain 44 6.7 41 5 89 89 NNW 10 17 29.98 1015 8 13 0.07 1.78
6:12 am 06:12 Cloudy with Rain 43 6.1 40 4.4 89 89 NW 8 13 30.02 1017 5 8 0.06 1.52
6:53 am 06:53 Cloudy with Light Rain 40 4.4 37 2.8 89 89 NNW 14 22 30.01 1016 10 16 0.12 3.05
7:00 am 07:00 Cloudy with Rain 40 4.4 36 2.2 86 86 NNW 10 17 30.04 1017 9 14 0.01 0.25
7:53 am 07:53 Cloudy with Light Rain 37 2.8 34 1.1 89 89 NW 17 28 30.05 1018 10 16 0.03 0.76
8:53 am 08:53 Cloudy with Light Rain 37 2.8 33 0.6 86 86 NW 15 24 30.08 1019 10 16 0.02 0.51
9:53 am 09:53 Cloudy 36 2.2 32 0 86 86 NW 13 20 30.11 1020 10 16 0.00 0.00
10:29 am 10:29 Cloudy 36 2.2 31 -0.6 82 82 NNW 12 19 30.15 1021 10 16 0.00 0.00
10:53 am 10:53 Cloudy 37 2.8 29 -1.7 73 73 NNW 17 28 30.12 1020 10 16 0.00 0.00
11:53 am 11:53 Cloudy 37 2.8 30 -1.1 76 76 NW 18 30 30.13 1020 10 16 0.00 0.00
12:53 pm 12:53 Cloudy 37 2.8 27 -2.8 67 67 N 20 31 30.14 1021 10 16 0.00 0.00
1:53 pm 13:53 Cloudy 37 2.8 27 -2.8 67 67 NNW 16 26 30.13 1020 10 16 0.00 0.00
2:53 pm 14:53 Mostly Cloudy 36 2.2 24 -4.4 62 62 NNW 17 28 30.15 1021 10 16 0.00 0.00
3:41 pm 15:41 Partly Cloudy 36 2.2 23 -5 59 59 NNW 18 30 30.20 1023 10 16 0.00 0.00
3:53 pm 15:53 Mostly Sunny 36 2.2 22 -5.6 57 57 NNW 16 26 30.16 1021 10 16 0.00 0.00
4:53 pm 16:53 Sunny 35 1.7 21 -6.1 57 57 NNW 16 26 30.18 1022 10 16 0.00 0.00
5:53 pm 17:53 Clear 32 0 21 -6.1 64 64 NW 9 15 30.21 1023 10 16 0.00 0.00
6:53 pm 18:53 Clear 30 -1.1 19 -7.2 64 64 VRB 7 11 30.23 1024 10 16 0.00 0.00
7:53 pm 19:53 Clear 29 -1.7 18 -7.8 63 63 NNW 12 19 30.24 1024 10 16 0.00 0.00
8:53 pm 20:53 Clear 28 -2.2 18 -7.8 66 66 NNW 8 13 30.26 1025 10 16 0.00 0.00
9:53 pm 21:53 Clear 27 -2.8 18 -7.8 69 69 NNW 10 17 30.27 1025 10 16 0.00 0.00
10:53 pm 22:53 Clear 26 -3.3 17 -8.3 69 69 NNW 9 15 30.29 1026 10 16 0.00 0.00
11:53 pm 23:53 Clear 25 -3.9 17 -8.3 72 72 NNW 6 9 30.29 1026 10 16 0.00 0.00

Powered by AerisWeather